| time (UTC) | temp F | wind direction | speed MPH | gust MPH | rain 1hr in | rain 24hr in | rain mn in | humidity % | barometer mb |
| 20260903160058 | 83 | 254 | 3.0 | 5.0 | 0.00 | 0.00 | 0.00 | 72 | 1019.8 |
| 20260903155538 | 83 | 240 | 2.0 | 4.0 | 0.00 | 0.00 | 0.00 | 74 | 1019.8 |
| 20260903155038 | 83 | 247 | 2.0 | 4.0 | 0.00 | 0.00 | 0.00 | 76 | 1019.8 |
| 20260903154557 | 82 | 230 | 3.0 | 4.0 | 0.00 | 0.00 | 0.00 | 77 | 1019.8 |
| 20260903154039 | 82 | 236 | 3.0 | 4.0 | 0.00 | 0.00 | 0.00 | 77 | 1019.8 |
| 20260903153538 | 81 | 244 | 2.0 | 5.0 | 0.00 | 0.00 | 0.00 | 77 | 1019.8 |
| 20260903153054 | 81 | 246 | 2.0 | 5.0 | 0.00 | 0.00 | 0.00 | 77 | 1019.8 |
| 20260903152541 | 81 | 254 | 3.0 | 5.0 | 0.00 | 0.00 | 0.00 | 77 | 1019.8 |
| 20260903152041 | 81 | 254 | 3.0 | 5.0 | 0.00 | 0.00 | 0.00 | 78 | 1019.9 |
| 20260903151611 | 80 | 236 | 2.0 | 4.0 | 0.00 | 0.00 | 0.00 | 78 | 1019.8 |
| 20260903151040 | 80 | 245 | 2.0 | 4.0 | 0.00 | 0.00 | 0.00 | 78 | 1019.8 |
| 20260903150540 | 80 | 253 | 1.0 | 3.0 | 0.00 | 0.00 | 0.00 | 78 | 1019.9 |
| 20260903150105 | 80 | 253 | 1.0 | 3.0 | 0.00 | 0.00 | 0.00 | 79 | 1019.9 |
| 20260903145539 | 79 | 250 | 1.0 | 4.0 | 0.00 | 0.00 | 0.00 | 80 | 1019.9 |
| 20260903145040 | 79 | 242 | 2.0 | 4.0 | 0.00 | 0.00 | 0.00 | 80 | 1019.8 |
| 20260903144557 | 79 | 253 | 1.0 | 3.0 | 0.00 | 0.00 | 0.00 | 80 | 1019.7 |
| 20260903144045 | 78 | 240 | 1.0 | 3.0 | 0.00 | 0.00 | 0.00 | 81 | 1019.7 |
| 20260903143540 | 78 | 250 | 1.0 | 3.0 | 0.00 | 0.00 | 0.00 | 82 | 1019.8 |
| 20260903143103 | 78 | 237 | 1.0 | 3.0 | 0.00 | 0.00 | 0.00 | 82 | 1019.8 |
| 20260903142540 | 78 | 237 | 0.0 | 3.0 | 0.00 | 0.00 | 0.00 | 82 | 1019.8 |
| 20260903142041 | 78 | 0 | 1.0 | 3.0 | 0.00 | 0.00 | 0.00 | 82 | 1019.8 |
| 20260903141553 | 78 | 0 | 0.0 | 1.0 | 0.00 | 0.00 | 0.00 | 83 | 1019.9 |
| 20260903141040 | 77 | 240 | 0.0 | 2.0 | 0.00 | 0.00 | 0.00 | 83 | 1019.7 |
| 20260903140540 | 77 | 0 | 1.0 | 2.0 | 0.00 | 0.00 | 0.00 | 83 | 1019.8 |
| 20260903135540 | 77 | 0 | 0.0 | 2.0 | 0.00 | 0.00 | 0.00 | 84 | 1019.7 |
| 20260903135040 | 77 | 14 | 0.0 | 2.0 | 0.00 | 0.00 | 0.00 | 83 | 1019.8 |
| 20260903134606 | 77 | 14 | 1.0 | 3.0 | 0.00 | 0.00 | 0.00 | 83 | 1019.9 |
| 20260903134040 | 77 | 67 | 0.0 | 3.0 | 0.00 | 0.00 | 0.00 | 84 | 1019.9 |
| 20260903133540 | 76 | 47 | 0.0 | 2.0 | 0.00 | 0.00 | 0.00 | 84 | 1020.0 |
| 20260903133057 | 76 | 0 | 0.0 | 1.0 | 0.00 | 0.00 | 0.00 | 84 | 1020.0 |
| 20260903132540 | 75 | 0 | 0.0 | 2.0 | 0.00 | 0.00 | 0.00 | 85 | 1020.0 |
| 20260903132040 | 75 | 0 | 0.0 | 2.0 | 0.00 | 0.00 | 0.00 | 84 | 1020.1 |
| 20260903131555 | 74 | 63 | 1.0 | 3.0 | 0.00 | 0.00 | 0.00 | 84 | 1020.1 |
| 20260903131039 | 74 | 0 | 0.0 | 3.0 | 0.00 | 0.00 | 0.00 | 84 | 1020.2 |
| 20260903130539 | 73 | 84 | 1.0 | 4.0 | 0.00 | 0.00 | 0.00 | 84 | 1020.2 |
| 20260903130052 | 73 | 88 | 1.0 | 4.0 | 0.00 | 0.00 | 0.00 | 84 | 1020.2 |
| 20260903125541 | 73 | 0 | 0.0 | 3.0 | 0.00 | 0.00 | 0.00 | 83 | 1020.2 |
| 20260903125042 | 73 | 0 | 0.0 | 3.0 | 0.00 | 0.00 | 0.00 | 83 | 1020.3 |
| 20260903124557 | 72 | 64 | 1.0 | 3.0 | 0.00 | 0.00 | 0.00 | 83 | 1020.2 |
| 20260903124040 | 72 | 0 | 1.0 | 3.0 | 0.00 | 0.00 | 0.00 | 83 | 1020.3 |
| 20260903123540 | 72 | 42 | 1.0 | 3.0 | 0.00 | 0.00 | 0.00 | 83 | 1020.3 |
| 20260903123058 | 71 | 42 | 1.0 | 3.0 | 0.00 | 0.00 | 0.00 | 83 | 1020.2 |
| 20260903122540 | 71 | 42 | 1.0 | 2.0 | 0.00 | 0.00 | 0.00 | 83 | 1020.2 |
| 20260903122040 | 71 | 0 | 1.0 | 2.0 | 0.00 | 0.00 | 0.00 | 83 | 1020.3 |
| 20260903121550 | 71 | 42 | 1.0 | 2.0 | 0.00 | 0.00 | 0.00 | 83 | 1020.2 |
| 20260903121040 | 71 | 42 | 0.0 | 2.0 | 0.00 | 0.00 | 0.00 | 83 | 1020.1 |
| 20260903120540 | 71 | 42 | 0.0 | 2.0 | 0.00 | 0.00 | 0.00 | 83 | 1020.1 |
| 20260903120056 | 71 | 42 | 0.0 | 3.0 | 0.00 | 0.00 | 0.00 | 83 | 1020.1 |
| 20260903115540 | 71 | 0 | 1.0 | 3.0 | 0.00 | 0.00 | 0.00 | 83 | 1020.1 |
| 20260903115040 | 71 | 57 | 0.0 | 3.0 | 0.00 | 0.00 | 0.00 | 83 | 1019.9 |
| 20260903114557 | 71 | 0 | 0.0 | 3.0 | 0.00 | 0.00 | 0.00 | 83 | 1019.9 |
| 20260903114041 | 71 | 76 | 1.0 | 2.0 | 0.00 | 0.00 | 0.00 | 83 | 1019.9 |
| 20260903113541 | 70 | 0 | 0.0 | 1.0 | 0.00 | 0.00 | 0.00 | 83 | 1019.8 |
| 20260903113052 | 70 | 0 | 0.0 | 2.0 | 0.00 | 0.00 | 0.00 | 83 | 1019.8 |
| 20260903112543 | 70 | 0 | 0.0 | 2.0 | 0.00 | 0.00 | 0.00 | 83 | 1019.6 |
| 20260903112039 | 70 | 88 | 0.0 | 2.0 | 0.00 | 0.00 | 0.00 | 83 | 1019.5 |
| 20260903111550 | 70 | 0 | 0.0 | 2.0 | 0.00 | 0.00 | 0.00 | 83 | 1019.5 |
| 20260903111042 | 70 | 88 | 1.0 | 2.0 | 0.00 | 0.00 | 0.00 | 83 | 1019.4 |
| 20260903110540 | 70 | 88 | 0.0 | 3.0 | 0.00 | 0.00 | 0.00 | 83 | 1019.4 |
| 20260903110058 | 70 | 88 | 1.0 | 3.0 | 0.00 | 0.00 | 0.00 | 83 | 1019.3 |
| 20260903105540 | 71 | 47 | 1.0 | 3.0 | 0.00 | 0.00 | 0.00 | 83 | 1019.3 |
| 20260903105040 | 71 | 47 | 1.0 | 3.0 | 0.00 | 0.00 | 0.00 | 83 | 1019.3 |
| 20260903104605 | 71 | 66 | 1.0 | 3.0 | 0.00 | 0.00 | 0.00 | 83 | 1019.1 |
| 20260903104040 | 71 | 46 | 1.0 | 3.0 | 0.00 | 0.00 | 0.00 | 83 | 1019.1 |
| 20260903103543 | 71 | 40 | 0.0 | 3.0 | 0.00 | 0.00 | 0.00 | 83 | 1019.1 |
| 20260903103052 | 71 | 0 | 1.0 | 3.0 | 0.00 | 0.00 | 0.00 | 83 | 1019.1 |
| 20260903102539 | 71 | 95 | 0.0 | 2.0 | 0.00 | 0.00 | 0.00 | 83 | 1019.1 |
| 20260903102039 | 71 | 46 | 1.0 | 2.0 | 0.00 | 0.00 | 0.00 | 83 | 1018.9 |
| 20260903101549 | 71 | 46 | 0.0 | 2.0 | 0.00 | 0.00 | 0.00 | 83 | 1018.8 |
| 20260903101040 | 71 | 46 | 0.0 | 2.0 | 0.00 | 0.00 | 0.00 | 83 | 1018.8 |
| 20260903100540 | 71 | 0 | 0.0 | 2.0 | 0.00 | 0.00 | 0.00 | 83 | 1018.8 |
| 20260903100059 | 72 | 0 | 0.0 | 2.0 | 0.00 | 0.00 | 0.00 | 83 | 1018.8 |
| 20260903095540 | 72 | 46 | 1.0 | 2.0 | 0.00 | 0.00 | 0.00 | 83 | 1018.8 |
| 20260903095040 | 72 | 46 | 0.0 | 2.0 | 0.00 | 0.00 | 0.00 | 83 | 1018.7 |
| 20260903094607 | 72 | 46 | 0.0 | 2.0 | 0.00 | 0.00 | 0.00 | 83 | 1018.6 |
| 20260903094040 | 72 | 46 | 1.0 | 2.0 | 0.00 | 0.00 | 0.00 | 83 | 1018.6 |
| 20260903093541 | 72 | 46 | 1.0 | 3.0 | 0.00 | 0.00 | 0.00 | 83 | 1018.7 |
| 20260903093057 | 72 | 0 | 0.0 | 3.0 | 0.00 | 0.00 | 0.00 | 83 | 1018.6 |
| 20260903092541 | 72 | 46 | 1.0 | 3.0 | 0.00 | 0.00 | 0.00 | 83 | 1018.6 |
| 20260903092040 | 72 | 46 | 0.0 | 2.0 | 0.00 | 0.00 | 0.00 | 83 | 1018.7 |
| 20260903091606 | 72 | 0 | 0.0 | 0.0 | 0.00 | 0.00 | 0.00 | 83 | 1018.5 |
| 20260903091039 | 72 | 0 | 0.0 | 1.0 | 0.00 | 0.00 | 0.00 | 84 | 1018.7 |
| 20260903090540 | 72 | 0 | 0.0 | 1.0 | 0.00 | 0.00 | 0.00 | 83 | 1018.7 |
| 20260903085540 | 72 | 0 | 0.0 | 2.0 | 0.00 | 0.00 | 0.00 | 84 | 1018.8 |
| 20260903085040 | 72 | 46 | 0.0 | 2.0 | 0.00 | 0.00 | 0.00 | 84 | 1018.8 |
| 20260903084558 | 72 | 0 | 0.0 | 2.0 | 0.00 | 0.00 | 0.00 | 84 | 1018.9 |
| 20260903084040 | 72 | 0 | 0.0 | 1.0 | 0.00 | 0.00 | 0.00 | 84 | 1018.9 |
| 20260903083541 | 72 | 0 | 0.0 | 1.0 | 0.00 | 0.00 | 0.00 | 84 | 1018.9 |
| 20260903083057 | 72 | 0 | 0.0 | 2.0 | 0.00 | 0.00 | 0.00 | 84 | 1018.9 |
| 20260903082541 | 72 | 46 | 0.0 | 2.0 | 0.00 | 0.00 | 0.00 | 84 | 1018.9 |
| 20260903082040 | 72 | 46 | 0.0 | 2.0 | 0.00 | 0.00 | 0.00 | 84 | 1018.9 |
| 20260903081559 | 72 | 0 | 0.0 | 2.0 | 0.00 | 0.00 | 0.00 | 84 | 1018.9 |
| 20260903081040 | 72 | 46 | 1.0 | 2.0 | 0.00 | 0.00 | 0.00 | 84 | 1018.9 |
| 20260903080540 | 72 | 46 | 0.0 | 1.0 | 0.00 | 0.00 | 0.00 | 84 | 1018.9 |
| 20260903080049 | 72 | 46 | 0.0 | 1.0 | 0.00 | 0.00 | 0.00 | 84 | 1018.9 |
| 20260903075542 | 73 | 0 | 0.0 | 2.0 | 0.00 | 0.00 | 0.00 | 84 | 1018.8 |
| 20260903075039 | 73 | 0 | 0.0 | 2.0 | 0.00 | 0.00 | 0.00 | 84 | 1018.8 |
| 20260903074557 | 73 | 46 | 0.0 | 2.0 | 0.00 | 0.00 | 0.00 | 84 | 1018.8 |
| 20260903074040 | 73 | 46 | 0.0 | 2.0 | 0.00 | 0.00 | 0.00 | 84 | 1018.8 |
| 20260903073540 | 73 | 46 | 0.0 | 2.0 | 0.00 | 0.00 | 0.00 | 84 | 1018.8 |
| 20260903073102 | 73 | 0 | 0.0 | 2.0 | 0.00 | 0.00 | 0.00 | 84 | 1018.8 |
| 20260903072542 | 73 | 0 | 0.0 | 2.0 | 0.00 | 0.00 | 0.00 | 84 | 1018.7 |
| 20260903072040 | 73 | 46 | 0.0 | 2.0 | 0.00 | 0.00 | 0.00 | 84 | 1018.7 |
| 20260903071553 | 73 | 46 | 0.0 | 1.0 | 0.00 | 0.00 | 0.00 | 84 | 1018.6 |
| 20260903071042 | 73 | 0 | 0.0 | 2.0 | 0.00 | 0.00 | 0.00 | 84 | 1018.7 |
| 20260903070541 | 73 | 46 | 0.0 | 2.0 | 0.00 | 0.00 | 0.00 | 84 | 1018.7 |
| 20260903070100 | 73 | 46 | 1.0 | 2.0 | 0.00 | 0.00 | 0.00 | 84 | 1018.7 |
| 20260903065540 | 73 | 46 | 0.0 | 2.0 | 0.00 | 0.00 | 0.00 | 84 | 1018.7 |
| 20260903065040 | 73 | 0 | 0.0 | 2.0 | 0.00 | 0.00 | 0.00 | 84 | 1018.7 |
| 20260903064556 | 73 | 0 | 0.0 | 2.0 | 0.00 | 0.00 | 0.00 | 84 | 1018.7 |
| 20260903064040 | 73 | 0 | 0.0 | 2.0 | 0.00 | 0.00 | 0.00 | 84 | 1018.7 |
| 20260903063540 | 73 | 46 | 0.0 | 2.0 | 0.00 | 0.00 | 0.00 | 84 | 1018.7 |
| 20260903063054 | 74 | 46 | 1.0 | 2.0 | 0.00 | 0.00 | 0.00 | 84 | 1018.7 |
| 20260903062540 | 74 | 75 | 0.0 | 3.0 | 0.00 | 0.00 | 0.00 | 84 | 1018.7 |
| 20260903062039 | 74 | 38 | 0.0 | 3.0 | 0.00 | 0.00 | 0.00 | 84 | 1018.7 |
| 20260903061608 | 74 | 38 | 2.0 | 3.0 | 0.00 | 0.00 | 0.00 | 84 | 1018.7 |
| 20260903061040 | 74 | 71 | 1.0 | 3.0 | 0.00 | 0.00 | 0.00 | 84 | 1018.7 |
| 20260903060542 | 74 | 62 | 1.0 | 3.0 | 0.00 | 0.00 | 0.00 | 85 | 1018.9 |
| 20260903060058 | 74 | 40 | 1.0 | 3.0 | 0.00 | 0.00 | 0.00 | 84 | 1019.0 |
| 20260903055541 | 75 | 40 | 1.0 | 3.0 | 0.00 | 0.00 | 0.00 | 84 | 1018.9 |
| 20260903055038 | 75 | 40 | 0.0 | 3.0 | 0.00 | 0.00 | 0.00 | 84 | 1018.9 |
| 20260903054556 | 75 | 40 | 2.0 | 3.0 | 0.00 | 0.00 | 0.00 | 84 | 1018.8 |
| 20260903054041 | 75 | 91 | 0.0 | 2.0 | 0.00 | 0.00 | 0.00 | 84 | 1019.0 |
| 20260903053542 | 75 | 0 | 0.0 | 2.0 | 0.00 | 0.00 | 0.00 | 84 | 1018.9 |
| 20260903053052 | 75 | 24 | 0.0 | 2.0 | 0.00 | 0.00 | 0.00 | 84 | 1019.0 |
| 20260903052540 | 75 | 0 | 0.0 | 0.0 | 0.00 | 0.00 | 0.00 | 84 | 1018.9 |
| 20260903052038 | 75 | 0 | 0.0 | 0.0 | 0.00 | 0.00 | 0.00 | 84 | 1019.1 |
| 20260903051603 | 75 | 0 | 0.0 | 0.0 | 0.00 | 0.00 | 0.00 | 84 | 1019.0 |
| 20260903051043 | 75 | 0 | 0.0 | 0.0 | 0.00 | 0.00 | 0.00 | 85 | 1019.1 |
| 20260903050540 | 75 | 0 | 0.0 | 0.0 | 0.00 | 0.00 | 0.00 | 85 | 1019.0 |
| 20260903050100 | 75 | 0 | 0.0 | 0.0 | 0.00 | 0.00 | 0.00 | 85 | 1019.0 |
| 20260903045539 | 75 | 0 | 0.0 | 0.0 | 0.00 | 0.00 | 0.00 | 85 | 1018.9 |
| 20260903045039 | 75 | 0 | 0.0 | 0.0 | 0.00 | 0.00 | 0.00 | 85 | 1018.9 |
| 20260903044558 | 75 | 0 | 0.0 | 0.0 | 0.00 | 0.00 | 0.00 | 85 | 1019.1 |
| 20260903044038 | 75 | 0 | 0.0 | 2.0 | 0.00 | 0.00 | 0.00 | 85 | 1019.1 |
| 20260903043538 | 76 | 0 | 0.0 | 3.0 | 0.00 | 0.00 | 0.00 | 85 | 1019.0 |
| 20260903043101 | 76 | 24 | 1.0 | 3.0 | 0.00 | 0.00 | 0.00 | 85 | 1019.1 |
| 20260903042540 | 76 | 24 | 1.0 | 3.0 | 0.00 | 0.00 | 0.00 | 85 | 1019.1 |
| 20260903042038 | 76 | 24 | 1.0 | 4.0 | 0.00 | 0.00 | 0.00 | 85 | 1019.1 |
| 20260903041600 | 76 | 50 | 1.0 | 4.0 | 0.00 | 0.00 | 0.00 | 85 | 1019.0 |
| 20260903041037 | 76 | 34 | 2.0 | 4.0 | 0.00 | 0.00 | 0.00 | 85 | 1019.1 |
| 20260903040538 | 76 | 44 | 2.0 | 3.0 | 0.00 | 0.00 | 0.00 | 85 | 1018.9 |
| 20260903040104 | 76 | 44 | 1.0 | 3.0 | 0.00 | 0.00 | 0.00 | 85 | 1018.9 |
| 20260903035538 | 76 | 44 | 1.0 | 3.0 | 0.00 | 0.00 | 0.00 | 84 | 1019.1 |
| 20260903035038 | 77 | 44 | 1.0 | 3.0 | 0.00 | 0.00 | 0.00 | 84 | 1019.1 |
| 20260903034553 | 77 | 44 | 1.0 | 3.0 | 0.00 | 0.00 | 0.00 | 84 | 1019.1 |
| 20260903034038 | 77 | 44 | 1.0 | 3.0 | 0.00 | 0.00 | 0.00 | 84 | 1019.2 |
| 20260903033538 | 77 | 44 | 1.0 | 3.0 | 0.00 | 0.00 | 0.00 | 84 | 1019.2 |
| 20260903033101 | 77 | 44 | 1.0 | 3.0 | 0.00 | 0.00 | 0.00 | 84 | 1019.3 |
| 20260903032538 | 77 | 44 | 1.0 | 3.0 | 0.00 | 0.00 | 0.00 | 84 | 1019.4 |
| 20260903032037 | 77 | 0 | 0.0 | 2.0 | 0.00 | 0.00 | 0.00 | 84 | 1019.3 |
| 20260903031600 | 77 | 44 | 1.0 | 3.0 | 0.00 | 0.00 | 0.00 | 84 | 1019.4 |
| 20260903031037 | 78 | 44 | 1.0 | 3.0 | 0.00 | 0.00 | 0.00 | 84 | 1019.4 |
| 20260903030538 | 78 | 57 | 1.0 | 3.0 | 0.00 | 0.00 | 0.00 | 84 | 1019.4 |
| 20260903030057 | 78 | 63 | 1.0 | 5.0 | 0.00 | 0.00 | 0.00 | 84 | 1019.3 |
| 20260903025538 | 78 | 86 | 2.0 | 5.0 | 0.00 | 0.00 | 0.00 | 84 | 1019.3 |
| 20260903025038 | 78 | 76 | 1.0 | 4.0 | 0.00 | 0.00 | 0.00 | 84 | 1019.3 |
| 20260903024558 | 78 | 81 | 1.0 | 3.0 | 0.00 | 0.00 | 0.00 | 84 | 1019.3 |
| 20260903024038 | 78 | 86 | 0.0 | 3.0 | 0.00 | 0.00 | 0.00 | 84 | 1019.2 |
| 20260903023542 | 78 | 104 | 1.0 | 4.0 | 0.00 | 0.00 | 0.00 | 84 | 1019.3 |
| 20260903023121 | 78 | 96 | 1.0 | 5.0 | 0.00 | 0.00 | 0.00 | 84 | 1019.3 |
| 20260903022539 | 78 | 73 | 1.0 | 5.0 | 0.00 | 0.00 | 0.00 | 84 | 1019.2 |
| 20260903022038 | 78 | 28 | 1.0 | 4.0 | 0.00 | 0.00 | 0.00 | 84 | 1019.2 |
| 20260903021557 | 78 | 0 | 1.0 | 2.0 | 0.00 | 0.00 | 0.00 | 84 | 1019.2 |
| 20260903021038 | 79 | 38 | 0.0 | 2.0 | 0.00 | 0.00 | 0.00 | 84 | 1019.2 |
| 20260903020538 | 79 | 0 | 0.0 | 2.0 | 0.00 | 0.00 | 0.00 | 84 | 1019.1 |
| 20260903015543 | 79 | 0 | 0.0 | 1.0 | 0.00 | 0.00 | 0.00 | 84 | 1019.1 |
| 20260903015038 | 79 | 0 | 0.0 | 1.0 | 0.00 | 0.00 | 0.00 | 84 | 1019.1 |
| 20260903014550 | 79 | 28 | 0.0 | 2.0 | 0.00 | 0.00 | 0.00 | 84 | 1019.1 |
| 20260903014038 | 80 | 0 | 0.0 | 2.0 | 0.00 | 0.00 | 0.00 | 84 | 1019.0 |
| 20260903013538 | 80 | 28 | 1.0 | 2.0 | 0.00 | 0.00 | 0.00 | 83 | 1018.9 |
| 20260903013059 | 80 | 0 | 0.0 | 3.0 | 0.00 | 0.00 | 0.00 | 83 | 1018.9 |
| 20260903012544 | 80 | 0 | 0.0 | 3.0 | 0.00 | 0.00 | 0.00 | 83 | 1018.9 |
| 20260903012038 | 80 | 40 | 0.0 | 2.0 | 0.00 | 0.00 | 0.00 | 84 | 1018.8 |
| 20260903011600 | 80 | 0 | 0.0 | 2.0 | 0.00 | 0.00 | 0.00 | 84 | 1018.7 |
| 20260903011039 | 80 | 18 | 0.0 | 2.0 | 0.00 | 0.00 | 0.00 | 83 | 1018.6 |
| 20260903010538 | 80 | 18 | 1.0 | 2.0 | 0.00 | 0.00 | 0.00 | 83 | 1018.6 |
| 20260903010106 | 80 | 18 | 0.0 | 2.0 | 0.00 | 0.00 | 0.00 | 83 | 1018.5 |
| 20260903005538 | 81 | 0 | 0.0 | 2.0 | 0.00 | 0.00 | 0.00 | 83 | 1018.5 |
| 20260903005042 | 81 | 18 | 0.0 | 3.0 | 0.00 | 0.00 | 0.00 | 83 | 1018.5 |
| 20260903004550 | 81 | 18 | 1.0 | 3.0 | 0.00 | 0.00 | 0.00 | 83 | 1018.6 |
| 20260903004041 | 81 | 18 | 2.0 | 3.0 | 0.00 | 0.00 | 0.00 | 83 | 1018.4 |
| 20260903003539 | 81 | 18 | 1.0 | 2.0 | 0.00 | 0.00 | 0.00 | 83 | 1018.4 |
| 20260903003100 | 81 | 0 | 0.0 | 3.0 | 0.00 | 0.00 | 0.00 | 82 | 1018.5 |
| 20260903002539 | 81 | 18 | 1.0 | 4.0 | 0.00 | 0.00 | 0.00 | 82 | 1018.4 |
| 20260903002042 | 81 | 18 | 1.0 | 4.0 | 0.00 | 0.00 | 0.00 | 82 | 1018.4 |
| 20260903001557 | 81 | 34 | 2.0 | 4.0 | 0.00 | 0.00 | 0.00 | 81 | 1018.4 |
| 20260903001038 | 81 | 22 | 1.0 | 4.0 | 0.00 | 0.00 | 0.00 | 81 | 1018.5 |
| 20260903000538 | 82 | 22 | 2.0 | 4.0 | 0.00 | 0.00 | 0.00 | 80 | 1018.4 |
| 20260903000056 | 82 | 17 | 2.0 | 3.0 | 0.00 | 0.00 | 0.00 | 81 | 1018.4 |
| 20260902235541 | 82 | 17 | 1.0 | 3.0 | 0.00 | 0.00 | 0.00 | 81 | 1018.2 |
| 20260902235041 | 82 | 17 | 2.0 | 4.0 | 0.00 | 0.00 | 0.00 | 80 | 1018.3 |
| 20260902234555 | 83 | 17 | 2.0 | 4.0 | 0.00 | 0.00 | 0.00 | 79 | 1018.3 |
| 20260902234042 | 83 | 17 | 2.0 | 3.0 | 0.00 | 0.00 | 0.00 | 80 | 1018.2 |
| 20260902233540 | 83 | 17 | 2.0 | 4.0 | 0.00 | 0.00 | 0.00 | 78 | 1018.2 |
| 20260902233057 | 83 | 17 | 2.0 | 4.0 | 0.00 | 0.00 | 0.00 | 77 | 1018.2 |
| 20260902232540 | 84 | 17 | 3.0 | 4.0 | 0.00 | 0.00 | 0.00 | 78 | 1018.2 |
| 20260902232039 | 84 | 17 | 2.0 | 4.0 | 0.00 | 0.00 | 0.00 | 76 | 1018.3 |
| 20260902231559 | 84 | 17 | 2.0 | 4.0 | 0.00 | 0.00 | 0.00 | 76 | 1018.3 |
| 20260902231041 | 85 | 17 | 2.0 | 4.0 | 0.00 | 0.00 | 0.00 | 75 | 1018.2 |
| 20260902230541 | 85 | 17 | 2.0 | 3.0 | 0.00 | 0.00 | 0.00 | 74 | 1018.2 |
| 20260902230106 | 85 | 17 | 2.0 | 3.0 | 0.00 | 0.00 | 0.00 | 74 | 1018.4 |
| 20260902225540 | 85 | 17 | 2.0 | 4.0 | 0.00 | 0.00 | 0.00 | 74 | 1018.4 |
| 20260902225040 | 85 | 17 | 2.0 | 4.0 | 0.00 | 0.00 | 0.00 | 73 | 1018.4 |
| 20260902224557 | 86 | 17 | 2.0 | 4.0 | 0.00 | 0.00 | 0.00 | 71 | 1018.4 |
| 20260902224040 | 86 | 17 | 3.0 | 4.0 | 0.00 | 0.00 | 0.00 | 71 | 1018.4 |
| 20260902223541 | 87 | 17 | 3.0 | 4.0 | 0.00 | 0.00 | 0.00 | 69 | 1018.4 |
| 20260902223104 | 88 | 28 | 2.0 | 4.0 | 0.00 | 0.00 | 0.00 | 69 | 1018.4 |
| 20260902222541 | 89 | 28 | 1.0 | 4.0 | 0.00 | 0.00 | 0.00 | 68 | 1018.4 |
| 20260902222040 | 89 | 28 | 2.0 | 5.0 | 0.00 | 0.00 | 0.00 | 66 | 1018.4 |
| 20260902221600 | 89 | 92 | 2.0 | 5.0 | 0.00 | 0.00 | 0.00 | 60 | 1018.4 |
| 20260902221040 | 89 | 16 | 3.0 | 4.0 | 0.00 | 0.00 | 0.00 | 58 | 1018.4 |
| 20260902220541 | 90 | 30 | 2.0 | 4.0 | 0.00 | 0.00 | 0.00 | 62 | 1018.4 |
| 20260902220056 | 89 | 67 | 0.0 | 5.0 | 0.00 | 0.00 | 0.00 | 58 | 1018.4 |
| 20260902215541 | 90 | 12 | 2.0 | 5.0 | 0.00 | 0.00 | 0.00 | 61 | 1018.5 |
| 20260902215040 | 91 | 47 | 2.0 | 4.0 | 0.00 | 0.00 | 0.00 | 57 | 1018.4 |
| 20260902214556 | 91 | 42 | 1.0 | 3.0 | 0.00 | 0.00 | 0.00 | 55 | 1018.5 |
| 20260902214040 | 92 | 351 | 1.0 | 3.0 | 0.00 | 0.00 | 0.00 | 56 | 1018.4 |
| 20260902213539 | 92 | 300 | 2.0 | 3.0 | 0.00 | 0.00 | 0.00 | 53 | 1018.5 |
| 20260902213052 | 92 | 304 | 0.0 | 3.0 | 0.00 | 0.00 | 0.00 | 50 | 1018.5 |
| 20260902212541 | 92 | 32 | 1.0 | 3.0 | 0.00 | 0.00 | 0.00 | 52 | 1018.4 |
| 20260902212041 | 91 | 63 | 0.0 | 5.0 | 0.00 | 0.00 | 0.00 | 53 | 1018.5 |
| 20260902211605 | 91 | 355 | 0.0 | 5.0 | 0.00 | 0.00 | 0.00 | 52 | 1018.4 |
| 20260902211041 | 90 | 355 | 3.0 | 5.0 | 0.00 | 0.00 | 0.00 | 53 | 1018.5 |
| 20260902210541 | 91 | 17 | 1.0 | 6.0 | 0.00 | 0.00 | 0.00 | 56 | 1018.5 |
| 20260902210057 | 91 | 306 | 2.0 | 6.0 | 0.00 | 0.00 | 0.00 | 54 | 1018.6 |
| 20260902205540 | 90 | 287 | 1.0 | 3.0 | 0.00 | 0.00 | 0.00 | 56 | 1018.6 |
| 20260902205040 | 90 | 11 | 0.0 | 3.0 | 0.00 | 0.00 | 0.00 | 56 | 1018.6 |
| 20260902204555 | 90 | 11 | 1.0 | 5.0 | 0.00 | 0.00 | 0.00 | 57 | 1018.6 |
| 20260902204039 | 90 | 11 | 2.0 | 7.0 | 0.00 | 0.00 | 0.00 | 56 | 1018.6 |
| 20260902203541 | 90 | 30 | 4.0 | 9.0 | 0.00 | 0.00 | 0.00 | 55 | 1018.6 |
| 20260902203050 | 90 | 30 | 3.0 | 9.0 | 0.00 | 0.00 | 0.00 | 55 | 1018.7 |
| 20260902202544 | 91 | 32 | 4.0 | 8.0 | 0.00 | 0.00 | 0.00 | 55 | 1018.7 |
| 20260902202041 | 91 | 86 | 2.0 | 7.0 | 0.00 | 0.00 | 0.00 | 54 | 1018.6 |
| 20260902201549 | 90 | 273 | 1.0 | 6.0 | 0.00 | 0.00 | 0.00 | 57 | 1018.7 |
| 20260902201040 | 90 | 261 | 3.0 | 6.0 | 0.00 | 0.00 | 0.00 | 57 | 1018.8 |
| 20260902200541 | 90 | 263 | 1.0 | 7.0 | 0.00 | 0.00 | 0.00 | 55 | 1018.7 |
| 20260902200056 | 90 | 311 | 1.0 | 7.0 | 0.00 | 0.00 | 0.00 | 54 | 1018.8 |
| 20260902195543 | 90 | 360 | 3.0 | 7.0 | 0.00 | 0.00 | 0.00 | 54 | 1018.9 |
| 20260902195040 | 90 | 292 | 2.0 | 5.0 | 0.00 | 0.00 | 0.00 | 56 | 1019.1 |
| 20260902194554 | 90 | 47 | 1.0 | 8.0 | 0.00 | 0.00 | 0.00 | 54 | 1019.1 |
| 20260902194043 | 89 | 22 | 0.0 | 8.0 | 0.00 | 0.00 | 0.00 | 55 | 1019.1 |
| 20260902193541 | 89 | 352 | 3.0 | 8.0 | 0.00 | 0.00 | 0.00 | 55 | 1019.2 |
| 20260902193058 | 89 | 0 | 2.0 | 8.0 | 0.00 | 0.00 | 0.00 | 57 | 1019.2 |
| 20260902192540 | 89 | 22 | 3.0 | 8.0 | 0.00 | 0.00 | 0.00 | 59 | 1019.2 |
| 20260902192040 | 89 | 5 | 2.0 | 9.0 | 0.00 | 0.00 | 0.00 | 59 | 1019.2 |
| 20260902191606 | 89 | 38 | 3.0 | 9.0 | 0.00 | 0.00 | 0.00 | 58 | 1019.3 |
| 20260902191039 | 89 | 32 | 2.0 | 6.0 | 0.00 | 0.00 | 0.00 | 59 | 1019.4 |
| 20260902190539 | 89 | 360 | 2.0 | 5.0 | 0.00 | 0.00 | 0.00 | 56 | 1019.4 |
| 20260902190056 | 89 | 327 | 2.0 | 7.0 | 0.00 | 0.00 | 0.00 | 57 | 1019.5 |
| 20260902185542 | 89 | 263 | 2.0 | 7.0 | 0.00 | 0.00 | 0.00 | 56 | 1019.6 |
| 20260902185040 | 89 | 251 | 4.0 | 7.0 | 0.00 | 0.00 | 0.00 | 56 | 1019.5 |
| 20260902184600 | 88 | 261 | 4.0 | 8.0 | 0.00 | 0.00 | 0.00 | 56 | 1019.6 |
| 20260902184040 | 88 | 256 | 4.0 | 9.0 | 0.00 | 0.00 | 0.00 | 59 | 1019.6 |
| 20260902183539 | 88 | 261 | 6.0 | 10.0 | 0.00 | 0.00 | 0.00 | 57 | 1019.7 |
| 20260902183059 | 88 | 260 | 7.0 | 10.0 | 0.00 | 0.00 | 0.00 | 59 | 1019.6 |
| 20260902182538 | 89 | 256 | 6.0 | 8.0 | 0.00 | 0.00 | 0.00 | 57 | 1019.8 |
| 20260902182041 | 89 | 266 | 1.0 | 4.0 | 0.00 | 0.00 | 0.00 | 57 | 1019.8 |
| 20260902181601 | 88 | 0 | 0.0 | 4.0 | 0.00 | 0.00 | 0.00 | 57 | 1019.9 |
| 20260902181039 | 88 | 65 | 2.0 | 4.0 | 0.00 | 0.00 | 0.00 | 58 | 1019.8 |
| 20260902180538 | 88 | 336 | 1.0 | 6.0 | 0.00 | 0.00 | 0.00 | 59 | 1019.9 |
| 20260902180100 | 88 | 313 | 3.0 | 7.0 | 0.00 | 0.00 | 0.00 | 59 | 1019.9 |
| 20260902175539 | 88 | 278 | 3.0 | 7.0 | 0.00 | 0.00 | 0.00 | 60 | 1020.0 |
| 20260902175040 | 88 | 259 | 3.0 | 7.0 | 0.00 | 0.00 | 0.00 | 60 | 1020.1 |
| 20260902174601 | 88 | 232 | 2.0 | 8.0 | 0.00 | 0.00 | 0.00 | 60 | 1020.1 |
| 20260902174041 | 88 | 243 | 4.0 | 8.0 | 0.00 | 0.00 | 0.00 | 59 | 1020.2 |
| 20260902173538 | 88 | 251 | 3.0 | 5.0 | 0.00 | 0.00 | 0.00 | 57 | 1020.3 |
| 20260902173101 | 88 | 272 | 0.0 | 2.0 | 0.00 | 0.00 | 0.00 | 60 | 1020.4 |
| 20260902172543 | 88 | 124 | 0.0 | 2.0 | 0.00 | 0.00 | 0.00 | 60 | 1020.5 |
| 20260902172038 | 87 | 0 | 0.0 | 4.0 | 0.00 | 0.00 | 0.00 | 60 | 1020.7 |
| 20260902171603 | 87 | 14 | 0.0 | 6.0 | 0.00 | 0.00 | 0.00 | 62 | 1020.6 |
| 20260902171039 | 87 | 308 | 2.0 | 7.0 | 0.00 | 0.00 | 0.00 | 64 | 1020.7 |
| 20260902170538 | 86 | 257 | 2.0 | 7.0 | 0.00 | 0.00 | 0.00 | 63 | 1020.7 |
| 20260902170103 | 86 | 233 | 3.0 | 5.0 | 0.00 | 0.00 | 0.00 | 62 | 1020.8 |
| 20260902165538 | 86 | 231 | 2.0 | 4.0 | 0.00 | 0.00 | 0.00 | 63 | 1020.8 |
| 20260902165040 | 85 | 252 | 3.0 | 4.0 | 0.00 | 0.00 | 0.00 | 63 | 1020.8 |
| 20260902164607 | 85 | 252 | 2.0 | 3.0 | 0.00 | 0.00 | 0.00 | 63 | 1020.9 |
| 20260902164041 | 85 | 252 | 1.0 | 3.0 | 0.00 | 0.00 | 0.00 | 64 | 1021.0 |
| 20260902163539 | 84 | 0 | 1.0 | 3.0 | 0.00 | 0.00 | 0.00 | 65 | 1021.2 |
| 20260902163056 | 84 | 252 | 2.0 | 4.0 | 0.00 | 0.00 | 0.00 | 67 | 1021.2 |
| 20260902162538 | 83 | 252 | 2.0 | 4.0 | 0.00 | 0.00 | 0.00 | 68 | 1021.3 |
| 20260902162038 | 83 | 251 | 2.0 | 3.0 | 0.00 | 0.00 | 0.00 | 70 | 1021.5 |
| 20260902161554 | 83 | 259 | 2.0 | 3.0 | 0.00 | 0.00 | 0.00 | 72 | 1021.4 |
| 20260902161039 | 82 | 254 | 2.0 | 3.0 | 0.00 | 0.00 | 0.00 | 73 | 1021.4 |
| 20260902160542 | 82 | 261 | 2.0 | 3.0 | 0.00 | 0.00 | 0.00 | 75 | 1021.5 |